Location: Rostock
(54.0884°N, 12.1234°E)
Time: 20:40:48
(UTC+01:00)

ISS - Pass Details

Date: 11 November 2017
Orbit: 402 x 407 km, 51.6° (Epoch: 20 November)

Event Time Altitude Azimuth Distance (km) Brightness Sun altitude
Exits shadow 06:42:44 - 267° (W) 1,591 -1.4 -7.4°
Reaches altitude 10° 06:43:07 10° 263° (W) 1,458 -1.6 -7.4°
Maximum altitude 06:45:49 24° 207° (SSW) 880 -2.2 -7.0°
Drops below altitude 10° 06:48:31 10° 151° (SSE) 1,453 -0.2 -6.6°
Sets 06:50:49 0° 137° (SE) 2,310 1.3 -6.3°
